TimeCDT,TemperatureF,Dew PointF,Humidity,Sea Level PressureIn,VisibilityMPH,Wind Direction,Wind SpeedMPH,Gust SpeedMPH,PrecipitationIn,Events,Conditions,WindDirDegrees,DateUTC
12:53 AM,69.1,66.0,90,29.97,6.0,Calm,Calm,-,N/A,,Clear,0,2013-09-10 05:53:00
1:53 AM,66.9,64.9,93,29.98,5.0,Calm,Calm,-,N/A,,Clear,0,2013-09-10 06:53:00
2:53 AM,66.9,64.9,93,30.00,5.0,Calm,Calm,-,N/A,,Clear,0,2013-09-10 07:53:00
3:53 AM,66.0,64.9,96,30.02,3.0,Calm,Calm,-,N/A,,Clear,0,2013-09-10 08:53:00
4:53 AM,64.9,64.0,97,30.04,3.0,Calm,Calm,-,N/A,,Clear,0,2013-09-10 09:53:00
5:24 AM,64.9,64.9,100,30.06,2.5,Calm,Calm,-,N/A,,Clear,0,2013-09-10 10:24:00
5:48 AM,64.4,62.6,94,30.07,3.0,Calm,Calm,-,N/A,,Clear,0,2013-09-10 10:48:00
5:53 AM,64.9,64.0,97,30.05,3.0,Calm,Calm,-,N/A,,Clear,0,2013-09-10 10:53:00
6:53 AM,64.0,63.0,96,30.07,3.0,Calm,Calm,-,N/A,,Clear,0,2013-09-10 11:53:00
7:01 AM,64.0,64.0,100,30.09,2.5,Calm,Calm,-,N/A,,Clear,0,2013-09-10 12:01:00
7:22 AM,66.0,64.0,93,30.09,4.0,Calm,Calm,-,N/A,,Clear,0,2013-09-10 12:22:00
7:53 AM,66.9,64.9,93,30.09,2.5,Calm,Calm,-,N/A,,Clear,0,2013-09-10 12:53:00
8:13 AM,70.0,66.9,90,30.10,4.0,Calm,Calm,-,N/A,,Clear,0,2013-09-10 13:13:00
8:53 AM,73.9,68.0,82,30.10,5.0,Calm,Calm,-,N/A,,Haze,0,2013-09-10 13:53:00
9:53 AM,82.0,66.9,60,30.11,9.0,Calm,Calm,-,N/A,,Clear,0,2013-09-10 14:53:00
10:53 AM,86.0,69.1,57,30.10,10.0,Calm,Calm,-,N/A,,Clear,0,2013-09-10 15:53:00
11:53 AM,89.1,66.0,46,30.11,10.0,South,5.8,-,N/A,,Clear,170,2013-09-10 16:53:00
12:53 PM,90.0,66.0,45,30.09,10.0,Calm,Calm,-,N/A,,Clear,0,2013-09-10 17:53:00
1:53 PM,93.9,66.0,40,30.06,10.0,Variable,6.9,-,N/A,,Clear,0,2013-09-10 18:53:00
2:53 PM,93.0,64.9,39,30.04,10.0,ESE,8.1,-,N/A,,Partly Cloudy,120,2013-09-10 19:53:00
3:53 PM,93.0,64.0,38,30.01,10.0,SSE,8.1,-,N/A,,Partly Cloudy,160,2013-09-10 20:53:00
4:53 PM,93.9,64.9,38,29.99,9.0,ESE,6.9,-,N/A,,Partly Cloudy,120,2013-09-10 21:53:00
5:53 PM,93.9,64.9,38,29.99,9.0,SSE,3.5,-,N/A,,Clear,150,2013-09-10 22:53:00
6:53 PM,90.0,66.0,45,29.99,9.0,Calm,Calm,-,N/A,,Clear,0,2013-09-10 23:53:00
7:53 PM,82.0,71.1,69,30.01,9.0,East,3.5,-,N/A,,Clear,80,2013-09-11 00:53:00
8:53 PM,78.1,71.1,79,30.03,8.0,Calm,Calm,-,N/A,,Clear,0,2013-09-11 01:53:00
9:53 PM,75.0,71.1,87,30.04,6.0,Calm,Calm,-,N/A,,Clear,0,2013-09-11 02:53:00
10:53 PM,73.9,70.0,87,30.06,6.0,Calm,Calm,-,N/A,,Clear,0,2013-09-11 03:53:00
11:53 PM,73.0,70.0,90,30.06,6.0,Calm,Calm,-,N/A,,Clear,0,2013-09-11 04:53:00